DLH9CF BIKF-EDDF

Flight info

Callsign DLH9CF
Flight time N/A
Altitude 35000
Route PIXUM1A PIXUM DCT PETUX DCT PODAR DCT ORTAV/N0460F350 DCT ODPEX DCT NESDI DCT NEXUS DCT GODOS DCT AMGOD DCT SOGPO DCT DIXAT DIXAT2C
Aircraft A320/M-V/N

Departure

Time N/A
Airport Keflavik International Airport (BIKF)

Arrival

Time 2026-04-15 10:55
Airport Frankfurt Main Airport (EDDF)
Time Latitude Longitude Altitude Speed Heading
2026-04-15 08:04 61.99115 -16.52989 34503 ft 407 kts 128°
2026-04-15 08:04 61.96040 -16.42892 34505 ft 407 kts 128°
2026-04-15 08:05 61.92958 -16.32814 34502 ft 406 kts 128°
2026-04-15 08:05 61.89875 -16.22765 34507 ft 406 kts 128°
2026-04-15 08:06 61.86808 -16.12809 34512 ft 406 kts 128°
2026-04-15 08:06 61.83715 -16.02819 34512 ft 405 kts 128°
2026-04-15 08:07 61.80618 -15.92857 34510 ft 405 kts 128°
2026-04-15 08:07 61.77507 -15.82893 34473 ft 405 kts 129°
2026-04-15 08:08 61.74402 -15.72987 34506 ft 404 kts 129°
2026-04-15 08:08 61.71318 -15.63195 34514 ft 403 kts 129°
2026-04-15 08:09 61.68209 -15.53372 34515 ft 403 kts 129°
2026-04-15 08:09 61.65085 -15.43555 34522 ft 403 kts 129°
2026-04-15 08:10 61.61962 -15.33770 34521 ft 402 kts 129°
2026-04-15 08:10 61.58856 -15.24084 34522 ft 402 kts 129°
2026-04-15 08:11 61.55728 -15.14350 34524 ft 402 kts 129°
2026-04-15 08:11 61.52601 -15.04652 34531 ft 402 kts 129°
2026-04-15 08:12 61.49437 -14.95014 34530 ft 401 kts 130°
2026-04-15 08:12 61.46119 -14.85666 34530 ft 399 kts 132°
2026-04-15 08:13 61.42723 -14.76480 34529 ft 399 kts 133°
2026-04-15 08:13 61.39334 -14.67298 34538 ft 399 kts 132°
2026-04-15 08:14 61.35989 -14.58157 34538 ft 399 kts 132°
2026-04-15 08:14 61.32624 -14.48976 34538 ft 398 kts 132°
2026-04-15 08:15 61.29248 -14.39820 34538 ft 398 kts 132°
2026-04-15 08:15 61.25868 -14.30702 34537 ft 398 kts 132°
2026-04-15 08:16 61.22480 -14.21610 34537 ft 398 kts 132°
2026-04-15 08:16 61.19086 -14.12534 34537 ft 398 kts 133°
2026-04-15 08:17 61.15696 -14.03475 34538 ft 398 kts 132°
2026-04-15 08:17 61.12302 -13.94451 34509 ft 397 kts 133°
2026-04-15 08:18 61.08895 -13.85457 34522 ft 397 kts 133°
2026-04-15 08:18 61.05509 -13.76551 34531 ft 397 kts 133°
2026-04-15 08:19 61.02094 -13.67595 34538 ft 397 kts 133°
2026-04-15 08:19 60.98684 -13.58665 34540 ft 397 kts 133°
2026-04-15 08:20 60.95267 -13.49750 34544 ft 396 kts 133°
2026-04-15 08:20 60.91842 -13.40864 34544 ft 396 kts 133°
2026-04-15 08:21 60.88404 -13.31986 34547 ft 396 kts 133°
2026-04-15 08:21 60.84962 -13.23133 34550 ft 396 kts 133°
2026-04-15 08:22 60.81541 -13.14349 34550 ft 396 kts 133°
2026-04-15 08:22 60.78095 -13.05539 34499 ft 397 kts 134°
2026-04-15 08:23 60.74637 -12.96714 34508 ft 397 kts 134°
2026-04-15 08:23 60.71173 -12.87907 34527 ft 398 kts 134°
2026-04-15 08:24 60.67693 -12.79119 34552 ft 398 kts 134°
2026-04-15 08:24 60.64238 -12.70415 34552 ft 398 kts 134°
2026-04-15 08:25 60.60750 -12.61676 34556 ft 397 kts 134°
2026-04-15 08:25 60.57254 -12.52968 34560 ft 397 kts 134°
2026-04-15 08:26 60.53752 -12.44268 34559 ft 397 kts 134°
2026-04-15 08:26 60.50248 -12.35587 34560 ft 397 kts 134°
2026-04-15 08:27 60.46743 -12.26920 34560 ft 397 kts 134°
2026-04-15 08:27 60.43233 -12.18273 34512 ft 397 kts 134°
2026-04-15 08:28 60.39713 -12.09631 34527 ft 398 kts 134°
2026-04-15 08:28 60.36187 -12.01010 34538 ft 398 kts 135°
2026-04-15 08:29 60.32671 -11.92466 34546 ft 398 kts 135°
2026-04-15 08:29 60.29126 -11.83884 34560 ft 398 kts 135°
2026-04-15 08:30 60.25581 -11.75299 34562 ft 398 kts 135°
2026-04-15 08:30 60.22028 -11.66731 34566 ft 398 kts 135°
2026-04-15 08:31 60.18468 -11.58211 34568 ft 398 kts 135°
2026-04-15 08:31 60.14898 -11.49709 34575 ft 398 kts 135°
2026-04-15 08:32 60.11324 -11.41220 34576 ft 398 kts 135°
2026-04-15 08:32 60.07749 -11.32740 34528 ft 398 kts 135°
2026-04-15 08:33 60.04172 -11.24273 34540 ft 398 kts 135°
2026-04-15 08:33 60.00606 -11.15884 34561 ft 398 kts 135°
2026-04-15 08:34 59.97008 -11.07466 34568 ft 398 kts 135°
2026-04-15 08:34 59.93410 -10.99059 34572 ft 398 kts 135°
2026-04-15 08:35 59.89804 -10.90651 34576 ft 398 kts 135°
2026-04-15 08:35 59.86196 -10.82286 34585 ft 398 kts 135°
2026-04-15 08:36 59.82581 -10.73937 34588 ft 398 kts 135°
2026-04-15 08:36 59.78960 -10.65604 34589 ft 398 kts 136°
2026-04-15 08:37 59.75357 -10.57342 34589 ft 398 kts 136°
2026-04-15 08:37 59.71733 -10.49049 34547 ft 398 kts 136°
2026-04-15 08:38 59.68101 -10.40776 34572 ft 398 kts 136°
2026-04-15 08:38 59.64456 -10.32524 34578 ft 398 kts 136°
2026-04-15 08:39 59.60811 -10.24286 34583 ft 398 kts 136°
2026-04-15 08:39 59.57160 -10.16049 34594 ft 398 kts 136°
2026-04-15 08:40 59.53528 -10.07906 34598 ft 398 kts 136°
2026-04-15 08:40 59.50132 -9.99250 34589 ft 406 kts 125°
2026-04-15 08:41 59.48007 -9.88796 34597 ft 415 kts 116°
2026-04-15 08:41 59.46088 -9.78082 34601 ft 415 kts 116°
2026-04-15 08:42 59.44156 -9.67394 34571 ft 416 kts 117°
2026-04-15 08:42 59.42533 -9.58488 34581 ft 417 kts 117°
2026-04-15 08:43 59.40225 -9.48174 34585 ft 406 kts 129°
2026-04-15 08:43 59.36913 -9.39316 34595 ft 402 kts 133°
2026-04-15 08:44 59.33550 -9.30549 34603 ft 403 kts 133°
2026-04-15 08:44 59.30176 -9.21770 34614 ft 403 kts 133°
2026-04-15 08:45 59.26799 -9.13020 34615 ft 403 kts 133°
2026-04-15 08:45 59.23418 -9.04283 34614 ft 403 kts 133°
2026-04-15 08:46 59.20034 -8.95570 34570 ft 403 kts 133°
2026-04-15 08:46 59.16655 -8.86919 34578 ft 403 kts 133°
2026-04-15 08:47 59.13244 -8.78228 34591 ft 404 kts 133°
2026-04-15 08:47 59.09826 -8.69541 34602 ft 404 kts 133°
2026-04-15 08:48 59.06409 -8.60868 34606 ft 404 kts 133°
2026-04-15 08:48 59.02976 -8.52198 34601 ft 404 kts 133°
2026-04-15 08:49 58.99539 -8.43558 34608 ft 404 kts 133°
2026-04-15 08:49 58.96098 -8.34937 34608 ft 404 kts 133°
2026-04-15 08:50 58.92650 -8.26326 34560 ft 405 kts 134°
2026-04-15 08:50 58.89208 -8.17784 34573 ft 405 kts 134°
2026-04-15 08:51 58.85735 -8.09195 34587 ft 406 kts 134°
2026-04-15 08:51 58.82253 -8.00584 34595 ft 407 kts 134°
2026-04-15 08:52 58.78763 -7.91976 34611 ft 407 kts 134°
2026-04-15 08:52 58.75262 -7.83401 34612 ft 407 kts 134°
2026-04-15 08:53 58.71752 -7.74838 34612 ft 407 kts 134°
2026-04-15 08:53 58.68247 -7.66302 34621 ft 407 kts 134°
2026-04-15 08:54 58.64736 -7.57775 34620 ft 407 kts 134°
2026-04-15 08:54 58.61237 -7.49329 34574 ft 407 kts 134°
2026-04-15 08:55 58.57703 -7.40821 34585 ft 409 kts 134°
2026-04-15 08:55 58.54153 -7.32305 34594 ft 409 kts 134°
2026-04-15 08:56 58.50591 -7.23794 34605 ft 410 kts 134°
2026-04-15 08:56 58.47018 -7.15295 34613 ft 410 kts 134°
2026-04-15 08:57 58.43446 -7.06812 34631 ft 410 kts 134°
2026-04-15 08:57 58.39860 -6.98314 34626 ft 410 kts 135°
2026-04-15 08:58 58.36269 -6.89864 34633 ft 410 kts 135°
2026-04-15 08:58 58.30897 -6.77263 34633 ft 410 kts 135°
2026-04-15 08:59 58.27296 -6.68853 34635 ft 410 kts 135°
2026-04-15 08:59 58.23692 -6.60452 34643 ft 410 kts 135°
2026-04-15 09:00 58.20082 -6.52074 34620 ft 410 kts 135°
2026-04-15 09:00 58.16463 -6.43716 34620 ft 409 kts 135°
2026-04-15 09:01 58.12842 -6.35385 34629 ft 409 kts 135°
2026-04-15 09:01 58.09221 -6.27079 34629 ft 410 kts 135°
2026-04-15 09:02 58.05586 -6.18774 34632 ft 409 kts 135°
2026-04-15 09:02 58.01975 -6.10548 34590 ft 410 kts 136°
2026-04-15 09:03 57.98333 -6.02276 34609 ft 411 kts 136°
2026-04-15 09:03 57.94676 -5.93982 34622 ft 412 kts 136°
2026-04-15 09:04 57.91003 -5.85705 34636 ft 412 kts 136°
2026-04-15 09:04 57.87322 -5.77461 34643 ft 412 kts 136°
2026-04-15 09:05 57.83629 -5.69211 34646 ft 412 kts 136°
2026-04-15 09:05 57.79931 -5.60968 34646 ft 412 kts 136°
2026-04-15 09:06 57.76233 -5.52743 34657 ft 413 kts 136°
2026-04-15 09:06 57.72545 -5.44558 34610 ft 412 kts 136°
2026-04-15 09:07 57.68813 -5.36330 34667 ft 417 kts 136°
2026-04-15 09:07 57.65074 -5.28099 34676 ft 417 kts 136°
2026-04-15 09:08 57.61315 -5.19834 34681 ft 417 kts 136°
2026-04-15 09:08 57.57545 -5.11601 34689 ft 417 kts 136°
2026-04-15 09:09 57.53772 -5.03394 34698 ft 417 kts 136°
2026-04-15 09:09 57.50019 -4.95261 34702 ft 416 kts 136°
2026-04-15 09:10 57.46243 -4.87109 34704 ft 416 kts 136°
2026-04-15 09:10 57.42471 -4.78971 34706 ft 416 kts 136°
2026-04-15 09:11 57.38683 -4.70842 34677 ft 416 kts 137°
2026-04-15 09:11 57.34885 -4.62717 34680 ft 417 kts 137°
2026-04-15 09:12 57.31088 -4.54624 34692 ft 418 kts 137°
2026-04-15 09:12 57.27267 -4.46505 34691 ft 418 kts 137°
2026-04-15 09:13 57.23465 -4.38460 34698 ft 418 kts 137°
2026-04-15 09:13 57.19639 -4.30367 34711 ft 419 kts 137°
2026-04-15 09:14 57.15806 -4.22282 34726 ft 418 kts 137°
2026-04-15 09:14 57.11996 -4.14177 34731 ft 422 kts 133°
2026-04-15 09:15 57.08617 -4.05259 34717 ft 426 kts 131°
2026-04-15 09:15 57.05228 -3.96315 34742 ft 426 kts 131°
2026-04-15 09:16 57.01825 -3.87393 34739 ft 427 kts 132°
2026-04-15 09:16 56.98419 -3.78446 34746 ft 428 kts 132°
2026-04-15 09:17 56.95006 -3.69516 34760 ft 428 kts 132°
2026-04-15 09:17 56.91598 -3.60660 34765 ft 428 kts 132°
2026-04-15 09:18 56.88168 -3.51765 34773 ft 428 kts 132°
2026-04-15 09:18 56.84710 -3.42846 34772 ft 431 kts 132°
2026-04-15 09:19 56.81231 -3.33906 34787 ft 431 kts 132°
2026-04-15 09:19 56.77756 -3.24998 34802 ft 431 kts 133°
2026-04-15 09:20 56.74267 -3.16095 34804 ft 432 kts 133°
2026-04-15 09:20 56.70774 -3.07203 34808 ft 432 kts 133°
2026-04-15 09:21 56.67268 -2.98308 34811 ft 432 kts 133°
2026-04-15 09:21 56.63759 -2.89438 34758 ft 432 kts 133°
2026-04-15 09:22 56.60256 -2.80638 34790 ft 433 kts 133°
2026-04-15 09:22 56.56721 -2.71780 34804 ft 434 kts 133°
2026-04-15 09:23 56.53176 -2.62919 34807 ft 434 kts 133°
2026-04-15 09:23 56.49627 -2.54082 34815 ft 434 kts 133°
2026-04-15 09:24 56.46071 -2.45264 34834 ft 434 kts 133°
2026-04-15 09:24 56.42508 -2.36457 34842 ft 434 kts 133°
2026-04-15 09:25 56.38936 -2.27674 34812 ft 434 kts 134°
2026-04-15 09:25 56.35373 -2.18932 34816 ft 435 kts 134°
2026-04-15 09:26 56.31777 -2.10145 34829 ft 436 kts 134°
2026-04-15 09:26 56.28168 -2.01366 34859 ft 436 kts 134°
2026-04-15 09:27 56.24563 -1.92600 34873 ft 435 kts 134°
2026-04-15 09:27 56.20925 -1.83929 34877 ft 430 kts 139°
2026-04-15 09:28 56.16928 -1.75961 34891 ft 428 kts 140°
2026-04-15 09:28 56.12933 -1.68044 34841 ft 428 kts 140°
2026-04-15 09:29 56.08954 -1.60169 34848 ft 430 kts 140°
2026-04-15 09:29 56.04928 -1.52231 34864 ft 431 kts 140°
2026-04-15 09:30 56.00889 -1.44300 34867 ft 432 kts 140°
2026-04-15 09:30 55.96835 -1.36360 34875 ft 432 kts 140°
2026-04-15 09:31 55.92775 -1.28446 34890 ft 432 kts 140°
2026-04-15 09:31 55.89393 -1.21875 34892 ft 432 kts 140°
2026-04-15 09:32 55.84666 -1.12713 34897 ft 432 kts 140°
2026-04-15 09:32 55.81246 -1.06100 34873 ft 434 kts 140°
2026-04-15 09:33 55.77169 -0.98248 34866 ft 435 kts 140°
2026-04-15 09:33 55.73052 -0.90334 34877 ft 437 kts 140°
2026-04-15 09:34 55.68918 -0.82426 34895 ft 437 kts 140°
2026-04-15 09:34 55.64779 -0.74527 34903 ft 438 kts 140°
2026-04-15 09:35 55.60631 -0.66635 34911 ft 438 kts 140°
2026-04-15 09:35 55.56478 -0.58769 34919 ft 438 kts 140°
2026-04-15 09:36 55.52320 -0.50922 34925 ft 438 kts 140°
2026-04-15 09:36 55.48150 -0.43078 34933 ft 437 kts 140°
2026-04-15 09:37 55.44010 -0.35310 34944 ft 437 kts 140°
2026-04-15 09:37 55.39847 -0.27513 34956 ft 437 kts 140°
2026-04-15 09:38 55.35668 -0.19735 34956 ft 437 kts 141°
2026-04-15 09:38 55.31487 -0.11979 34949 ft 437 kts 141°
2026-04-15 09:39 55.27338 -0.04282 34955 ft 437 kts 141°
2026-04-15 09:39 55.23154 0.03454 34922 ft 437 kts 140°
2026-04-15 09:40 55.18952 0.11175 34925 ft 439 kts 140°
2026-04-15 09:40 55.14725 0.18922 34937 ft 440 kts 141°
2026-04-15 09:41 55.10489 0.26660 34948 ft 441 kts 141°
2026-04-15 09:41 55.06249 0.34385 34952 ft 441 kts 141°
2026-04-15 09:42 55.01993 0.42096 34959 ft 441 kts 141°
2026-04-15 09:42 54.97731 0.49798 34965 ft 441 kts 141°
2026-04-15 09:43 54.93468 0.57489 34941 ft 442 kts 140°
2026-04-15 09:43 54.89180 0.65200 34950 ft 444 kts 140°
2026-04-15 09:44 54.84898 0.72863 34966 ft 445 kts 140°
2026-04-15 09:44 54.80571 0.80594 34969 ft 446 kts 140°
2026-04-15 09:45 54.76245 0.88310 34980 ft 447 kts 141°
2026-04-15 09:45 54.71905 0.96000 34977 ft 447 kts 141°
2026-04-15 09:46 54.67557 1.03681 34987 ft 447 kts 141°
2026-04-15 09:46 54.63202 1.11365 34977 ft 448 kts 140°
2026-04-15 09:47 54.58835 1.19043 34984 ft 450 kts 141°
2026-04-15 09:47 54.54435 1.26736 34990 ft 451 kts 141°
2026-04-15 09:48 54.50024 1.34439 35009 ft 452 kts 141°
2026-04-15 09:48 54.45605 1.42129 35009 ft 452 kts 141°
2026-04-15 09:49 54.41210 1.49767 35022 ft 452 kts 141°
2026-04-15 09:49 54.36779 1.57418 35028 ft 452 kts 141°
2026-04-15 09:50 54.32347 1.65053 35015 ft 453 kts 141°
2026-04-15 09:50 54.27888 1.72709 35022 ft 455 kts 141°
2026-04-15 09:51 54.23404 1.80384 35018 ft 457 kts 141°
2026-04-15 09:51 54.18900 1.88054 35016 ft 457 kts 141°
2026-04-15 09:52 54.14388 1.95705 35033 ft 457 kts 141°
2026-04-15 09:52 54.09911 2.03312 35045 ft 457 kts 141°
2026-04-15 09:53 54.05409 2.10940 35039 ft 457 kts 141°
2026-04-15 09:53 54.00889 2.18570 35041 ft 459 kts 141°
2026-04-15 09:54 53.96331 2.26215 35032 ft 461 kts 141°
2026-04-15 09:54 53.91760 2.33867 35049 ft 462 kts 141°
2026-04-15 09:55 53.87180 2.41516 35053 ft 462 kts 141°
2026-04-15 09:55 53.82616 2.49100 35058 ft 463 kts 141°
2026-04-15 09:56 53.78017 2.56723 35068 ft 463 kts 141°
2026-04-15 09:56 53.73390 2.64345 35369 ft 465 kts 141°
2026-04-15 09:57 53.71096 2.68117 35504 ft 467 kts 141°
2026-04-15 09:57 53.68773 2.71939 35712 ft 467 kts 141°
2026-04-15 09:57 53.66444 2.75770 35935 ft 467 kts 141°
2026-04-15 09:57 53.64118 2.79587 36149 ft 467 kts 141°
2026-04-15 09:58 53.61789 2.83398 36356 ft 466 kts 141°
2026-04-15 09:58 53.59466 2.87197 36553 ft 466 kts 141°
2026-04-15 09:58 53.57142 2.90998 36755 ft 466 kts 141°
2026-04-15 09:58 53.54815 2.94804 36948 ft 466 kts 141°
2026-04-15 09:59 53.52492 2.98590 37081 ft 466 kts 141°
2026-04-15 09:59 53.47823 3.06159 37106 ft 466 kts 141°
2026-04-15 10:00 53.43146 3.13717 37097 ft 469 kts 141°
2026-04-15 10:00 53.38429 3.21314 37098 ft 471 kts 141°
2026-04-15 10:01 53.33707 3.28905 37104 ft 471 kts 141°
2026-04-15 10:01 53.28994 3.36426 37103 ft 471 kts 141°
2026-04-15 10:02 53.24072 3.43595 37116 ft 465 kts 151°
2026-04-15 10:02 53.18523 3.48962 37110 ft 461 kts 156°
2026-04-15 10:03 53.12928 3.54189 37114 ft 460 kts 156°
2026-04-15 10:03 53.07334 3.59397 37108 ft 461 kts 155°
2026-04-15 10:04 53.01728 3.64633 37100 ft 464 kts 153°
2026-04-15 10:04 52.96756 3.71495 37125 ft 475 kts 134°
2026-04-15 10:05 52.93001 3.80620 37112 ft 481 kts 124°
2026-04-15 10:05 52.89474 3.90034 37137 ft 481 kts 125°
2026-04-15 10:06 52.85919 3.99433 37144 ft 481 kts 125°
2026-04-15 10:06 52.82348 4.08805 37143 ft 482 kts 124°
2026-04-15 10:07 52.78769 4.18206 37144 ft 484 kts 124°
2026-04-15 10:07 52.75188 4.27614 37149 ft 485 kts 124°
2026-04-15 10:08 52.71587 4.37019 37154 ft 485 kts 125°
2026-04-15 10:08 52.67994 4.46360 37139 ft 485 kts 125°
2026-04-15 10:09 52.64371 4.55720 37153 ft 485 kts 125°
2026-04-15 10:09 52.60741 4.65081 37167 ft 485 kts 125°
2026-04-15 10:10 52.57104 4.74431 37177 ft 485 kts 125°
2026-04-15 10:10 52.53469 4.83751 37184 ft 485 kts 125°
2026-04-15 10:11 52.49809 4.93113 37189 ft 485 kts 125°
2026-04-15 10:11 52.46173 5.02363 37179 ft 485 kts 125°
2026-04-15 10:12 52.42499 5.11658 37173 ft 486 kts 125°
2026-04-15 10:12 52.38815 5.20952 37171 ft 486 kts 125°
2026-04-15 10:13 52.35124 5.30231 37182 ft 486 kts 125°
2026-04-15 10:13 52.31433 5.39483 37187 ft 486 kts 125°
2026-04-15 10:14 52.27733 5.48726 37188 ft 486 kts 124°
2026-04-15 10:14 52.24020 5.57960 37182 ft 486 kts 124°
2026-04-15 10:15 52.20304 5.67177 37195 ft 487 kts 124°
2026-04-15 10:15 52.16603 5.76334 37204 ft 487 kts 124°
2026-04-15 10:16 52.12856 5.85540 37199 ft 487 kts 124°
2026-04-15 10:16 52.09109 5.94732 37210 ft 487 kts 124°
2026-04-15 10:17 52.05353 6.03914 37207 ft 488 kts 124°
2026-04-15 10:17 52.01575 6.13107 37193 ft 488 kts 124°
2026-04-15 10:18 51.97792 6.22174 37195 ft 488 kts 128°
2026-04-15 10:18 51.93031 6.29933 37200 ft 485 kts 143°
2026-04-15 10:19 51.87766 6.36796 37215 ft 486 kts 142°
2026-04-15 10:19 51.82486 6.43669 37193 ft 487 kts 142°
2026-04-15 10:20 51.77196 6.50545 37199 ft 488 kts 142°
2026-04-15 10:20 51.71898 6.57416 37143 ft 490 kts 142°
2026-04-15 10:20 51.69242 6.60858 36754 ft 490 kts 142°
2026-04-15 10:21 51.66585 6.64299 36368 ft 489 kts 142°
2026-04-15 10:21 51.63934 6.67729 35989 ft 489 kts 142°
2026-04-15 10:21 51.61282 6.71146 35601 ft 489 kts 142°
2026-04-15 10:21 51.58631 6.74554 35234 ft 489 kts 142°
2026-04-15 10:22 51.55964 6.77975 34878 ft 490 kts 142°
2026-04-15 10:22 51.53291 6.81393 34527 ft 491 kts 142°
2026-04-15 10:22 51.50615 6.84805 34169 ft 492 kts 142°
2026-04-15 10:22 51.47928 6.88237 33762 ft 493 kts 142°
2026-04-15 10:23 51.46153 6.90503 33496 ft 493 kts 142°
2026-04-15 10:23 51.42611 6.95014 32974 ft 487 kts 142°
2026-04-15 10:23 51.39974 6.98362 32590 ft 478 kts 142°
2026-04-15 10:23 51.37388 7.01638 32195 ft 470 kts 142°
2026-04-15 10:24 51.35666 7.03818 31927 ft 465 kts 142°
2026-04-15 10:24 51.33180 7.06961 31549 ft 458 kts 142°
2026-04-15 10:24 51.30670 7.10127 31194 ft 451 kts 142°
2026-04-15 10:24 51.28218 7.13194 30827 ft 444 kts 144°
2026-04-15 10:25 51.25653 7.15875 30463 ft 437 kts 152°
2026-04-15 10:25 51.23002 7.18042 30087 ft 430 kts 155°
2026-04-15 10:25 51.20347 7.20140 29673 ft 424 kts 155°
2026-04-15 10:25 51.17717 7.22223 29255 ft 419 kts 155°
2026-04-15 10:26 51.15118 7.24285 28839 ft 414 kts 155°
2026-04-15 10:26 51.12559 7.26315 28435 ft 409 kts 155°
2026-04-15 10:26 51.10027 7.28334 28034 ft 405 kts 154°
2026-04-15 10:26 51.07527 7.30373 27633 ft 402 kts 153°
2026-04-15 10:27 51.05044 7.32428 27141 ft 411 kts 153°
2026-04-15 10:27 51.02392 7.34631 26371 ft 446 kts 153°
2026-04-15 10:27 50.99557 7.36981 25627 ft 469 kts 153°
2026-04-15 10:27 50.96702 7.39344 24896 ft 454 kts 153°
2026-04-15 10:28 50.93948 7.41619 24260 ft 437 kts 153°
2026-04-15 10:28 50.91307 7.43793 23799 ft 418 kts 153°
2026-04-15 10:28 50.88833 7.45821 23269 ft 401 kts 153°
2026-04-15 10:28 50.86392 7.47819 22735 ft 387 kts 153°
2026-04-15 10:29 50.84044 7.49737 22214 ft 374 kts 153°
2026-04-15 10:29 50.81762 7.51594 21695 ft 363 kts 153°
2026-04-15 10:29 50.79546 7.53399 21188 ft 355 kts 154°
2026-04-15 10:29 50.77356 7.55178 20558 ft 350 kts 154°
2026-04-15 10:30 50.75200 7.56930 19946 ft 346 kts 154°
2026-04-15 10:30 50.73073 7.58668 19352 ft 343 kts 154°
2026-04-15 10:30 50.70986 7.60373 18671 ft 341 kts 154°
2026-04-15 10:30 50.68848 7.62113 17873 ft 341 kts 154°
2026-04-15 10:31 50.66786 7.63781 17436 ft 333 kts 154°
2026-04-15 10:31 50.64735 7.65431 17168 ft 330 kts 154°
2026-04-15 10:31 50.62690 7.67079 16827 ft 330 kts 154°
2026-04-15 10:31 50.60645 7.68732 16458 ft 329 kts 154°
2026-04-15 10:32 50.58615 7.70375 16086 ft 328 kts 154°
2026-04-15 10:32 50.56608 7.71998 15687 ft 321 kts 154°
2026-04-15 10:32 50.54632 7.73588 15312 ft 318 kts 154°
2026-04-15 10:32 50.52667 7.75171 14952 ft 316 kts 154°
2026-04-15 10:33 50.50718 7.76739 14601 ft 314 kts 155°
2026-04-15 10:33 50.48781 7.78296 14240 ft 312 kts 155°
2026-04-15 10:33 50.46851 7.79842 13875 ft 312 kts 155°
2026-04-15 10:33 50.44922 7.81383 13507 ft 311 kts 155°
2026-04-15 10:34 50.43053 7.83098 13151 ft 310 kts 146°
2026-04-15 10:34 50.41365 7.85176 12864 ft 307 kts 143°
2026-04-15 10:34 50.39697 7.87259 12576 ft 305 kts 143°
2026-04-15 10:34 50.38040 7.89310 12289 ft 303 kts 143°
2026-04-15 10:35 50.36387 7.91354 12006 ft 301 kts 143°
2026-04-15 10:35 50.34743 7.93384 11687 ft 301 kts 143°
2026-04-15 10:35 50.33098 7.95416 11400 ft 299 kts 143°
2026-04-15 10:35 50.31491 7.97401 11145 ft 297 kts 143°
2026-04-15 10:36 50.29857 7.99419 10861 ft 295 kts 143°
2026-04-15 10:36 50.28256 8.01404 10592 ft 293 kts 140°
2026-04-15 10:36 50.26900 8.03704 10317 ft 292 kts 125°
2026-04-15 10:36 50.25972 8.06503 10156 ft 291 kts 110°
2026-04-15 10:37 50.25439 8.09553 10066 ft 292 kts 105°
2026-04-15 10:37 50.24947 8.12632 9950 ft 292 kts 105°
2026-04-15 10:37 50.24453 8.15695 9821 ft 291 kts 104°
2026-04-15 10:37 50.23953 8.18764 9729 ft 290 kts 105°
2026-04-15 10:38 50.23457 8.21813 9629 ft 289 kts 105°
2026-04-15 10:38 50.22960 8.24858 9521 ft 289 kts 105°
2026-04-15 10:38 50.22465 8.27890 9408 ft 288 kts 105°
2026-04-15 10:38 50.21972 8.30918 9305 ft 288 kts 105°
2026-04-15 10:39 50.21471 8.33947 9204 ft 287 kts 107°
2026-04-15 10:39 50.20648 8.36756 9085 ft 284 kts 125°
2026-04-15 10:39 50.19343 8.39018 8979 ft 282 kts 142°
2026-04-15 10:39 50.17659 8.40584 8862 ft 280 kts 159°
2026-04-15 10:40 50.15849 8.41620 8740 ft 279 kts 161°
2026-04-15 10:40 50.13990 8.42423 8626 ft 277 kts 176°
2026-04-15 10:40 50.12109 8.41988 8517 ft 276 kts 203°
2026-04-15 10:40 50.10565 8.40253 8412 ft 276 kts 231°
2026-04-15 10:41 50.09662 8.37625 8311 ft 278 kts 249°
2026-04-15 10:41 50.08982 8.34805 8201 ft 278 kts 249°
2026-04-15 10:41 50.08307 8.31981 8092 ft 278 kts 249°
2026-04-15 10:41 50.07635 8.29176 7980 ft 277 kts 249°
2026-04-15 10:42 50.06958 8.26375 7884 ft 276 kts 249°
2026-04-15 10:42 50.06278 8.23571 7776 ft 276 kts 248°
2026-04-15 10:42 50.05602 8.20790 7666 ft 276 kts 249°
2026-04-15 10:42 50.04920 8.17990 7565 ft 275 kts 248°
2026-04-15 10:43 50.04241 8.15212 7458 ft 275 kts 248°
2026-04-15 10:43 50.03563 8.12443 7355 ft 274 kts 248°
2026-04-15 10:43 50.02888 8.09683 7253 ft 273 kts 248°
2026-04-15 10:43 50.02212 8.06914 7149 ft 273 kts 248°
2026-04-15 10:44 50.01537 8.04151 7046 ft 273 kts 248°
2026-04-15 10:44 50.00872 8.01427 6941 ft 272 kts 248°
2026-04-15 10:44 50.00200 7.98682 6848 ft 272 kts 248°
2026-04-15 10:44 49.99526 7.95939 6742 ft 271 kts 248°
2026-04-15 10:45 49.98855 7.93208 6626 ft 271 kts 248°
2026-04-15 10:45 49.98183 7.90467 6526 ft 271 kts 248°
2026-04-15 10:45 49.97513 7.87732 6415 ft 271 kts 247°
2026-04-15 10:45 49.96590 7.85211 6299 ft 269 kts 226°
2026-04-15 10:46 49.95055 7.83627 6158 ft 266 kts 197°
2026-04-15 10:46 49.93238 7.83345 6031 ft 264 kts 170°
2026-04-15 10:46 49.91495 7.84199 5764 ft 264 kts 158°
2026-04-15 10:46 49.89798 7.85230 5381 ft 261 kts 153°
2026-04-15 10:47 49.88408 7.86946 5040 ft 255 kts 125°
2026-04-15 10:47 49.87714 7.89447 4778 ft 255 kts 98°
2026-04-15 10:47 49.87857 7.92159 4531 ft 257 kts 72°
2026-04-15 10:47 49.88484 7.94751 4387 ft 256 kts 70°
2026-04-15 10:48 49.89119 7.97327 4259 ft 257 kts 70°
2026-04-15 10:48 49.89756 7.99907 4129 ft 256 kts 69°
2026-04-15 10:48 49.90396 8.02480 4005 ft 256 kts 70°
2026-04-15 10:48 49.91027 8.05044 3998 ft 255 kts 70°
2026-04-15 10:49 49.91656 8.07618 3984 ft 255 kts 70°
2026-04-15 10:49 49.92271 8.10127 3998 ft 242 kts 70°
2026-04-15 10:49 49.92851 8.12499 4006 ft 236 kts 70°
2026-04-15 10:49 49.93430 8.14875 4006 ft 235 kts 70°
2026-04-15 10:50 49.94010 8.17252 4000 ft 235 kts 70°
2026-04-15 10:50 49.94588 8.19625 4006 ft 235 kts 70°
2026-04-15 10:50 49.95173 8.22030 4008 ft 235 kts 70°
2026-04-15 10:50 49.95741 8.24366 4008 ft 235 kts 70°
2026-04-15 10:51 49.96318 8.26741 3916 ft 234 kts 70°
2026-04-15 10:51 49.96886 8.29080 3652 ft 228 kts 70°
2026-04-15 10:51 49.97444 8.31384 3366 ft 229 kts 70°
2026-04-15 10:51 49.98005 8.33702 3056 ft 229 kts 70°
2026-04-15 10:52 49.98560 8.35998 2732 ft 223 kts 70°
2026-04-15 10:52 49.99083 8.38162 2448 ft 208 kts 70°
2026-04-15 10:52 49.99576 8.40203 2175 ft 196 kts 70°
2026-04-15 10:52 50.00030 8.42087 1923 ft 177 kts 70°
2026-04-15 10:53 50.00439 8.43785 1712 ft 158 kts 71°
2026-04-15 10:53 50.00806 8.45310 1478 ft 145 kts 70°
2026-04-15 10:53 50.01151 8.46742 1283 ft 140 kts 70°
2026-04-15 10:53 50.01489 8.48150 1091 ft 139 kts 70°
2026-04-15 10:54 50.01826 8.49553 908 ft 137 kts 69°
2026-04-15 10:54 50.02157 8.50939 737 ft 137 kts 70°
2026-04-15 10:54 50.02490 8.52319 541 ft 137 kts 68°
2026-04-15 10:54 50.02821 8.53676 383 ft 136 kts 69°
2026-04-15 10:55 50.03129 8.54963 342 ft 109 kts 69°
2026-04-15 10:55 50.03331 8.55812 347 ft 59 kts 69°
2026-04-15 10:55 50.03418 8.56153 355 ft 27 kts 60°
2026-04-15 10:55 50.03537 8.56373 354 ft 25 kts 39°
2026-04-15 10:56 50.03629 8.56486 356 ft 14 kts 39°
2026-04-15 10:56 50.03700 8.56580 354 ft 13 kts 40°
2026-04-15 10:56 50.03708 8.56590 355 ft 0 kts 38°
2026-04-15 10:57 50.03710 8.56592 355 ft 2 kts 38°
2026-04-15 10:57 50.03804 8.56775 357 ft 16 kts 68°
2026-04-15 10:57 50.03843 8.56946 359 ft 18 kts 69°
2026-04-15 10:58 50.03887 8.57123 362 ft 17 kts 70°
2026-04-15 10:58 50.03927 8.57293 363 ft 16 kts 69°
2026-04-15 10:58 50.03967 8.57457 365 ft 17 kts 69°
2026-04-15 10:58 50.04009 8.57636 368 ft 18 kts 70°
2026-04-15 10:59 50.04054 8.57824 369 ft 19 kts 70°
2026-04-15 10:59 50.04103 8.58029 372 ft 20 kts 70°
2026-04-15 10:59 50.04192 8.58174 366 ft 19 kts 27°
2026-04-15 10:59 50.04285 8.58201 366 ft 0 kts 346°
2026-04-15 11:00 50.04296 8.58196 366 ft 9 kts 345°
2026-04-15 11:01 50.04389 8.58142 371 ft 15 kts 338°
2026-04-15 11:01 50.04480 8.58088 368 ft 13 kts 339°
2026-04-15 11:01 50.04494 8.58080 367 ft 0 kts 339°
2026-04-15 11:01 50.04497 8.58079 366 ft 3 kts 339°
2026-04-15 11:02 50.04532 8.58022 364 ft 11 kts 287°
2026-04-15 11:02 50.04519 8.57920 365 ft 9 kts 250°
2026-04-15 11:02 50.04497 8.57830 366 ft 10 kts 248°
2026-04-15 11:02 50.04461 8.57684 367 ft 16 kts 250°
2026-04-15 11:03 50.04422 8.57515 364 ft 18 kts 250°
2026-04-15 11:03 50.04377 8.57324 363 ft 19 kts 249°
2026-04-15 11:03 50.04328 8.57122 363 ft 21 kts 249°
2026-04-15 11:03 50.04274 8.56896 361 ft 22 kts 250°
2026-04-15 11:04 50.04218 8.56658 361 ft 25 kts 249°
2026-04-15 11:04 50.04159 8.56420 358 ft 15 kts 250°
2026-04-15 11:04 50.04145 8.56333 357 ft 7 kts 269°
2026-04-15 11:04 50.04166 8.56285 360 ft 4 kts 329°
2026-04-15 11:05 50.04169 8.56283 358 ft 0 kts 332°
2026-04-15 11:05 50.04177 8.56278 358 ft 6 kts 339°
2026-04-15 11:05 50.04215 8.56254 355 ft 5 kts 338°
2026-04-15 11:06 50.04216 8.56253 355 ft 0 kts 338°
2026-04-15 11:08 50.04224 8.56249 361 ft 7 kts 338°
2026-04-15 11:08 50.04277 8.56216 362 ft 7 kts 332°
2026-04-15 11:08 50.04290 8.56159 357 ft 6 kts 273°
2026-04-15 11:08 50.04314 8.56080 361 ft 10 kts 320°
2026-04-15 11:09 50.04376 8.56038 356 ft 9 kts 341°
2026-04-15 11:09 50.04420 8.56013 361 ft 5 kts 338°
2026-04-15 11:09 50.04446 8.55984 362 ft 8 kts 326°
2026-04-15 11:09 50.04519 8.55987 356 ft 11 kts 24°
2026-04-15 11:10 50.04559 8.56066 360 ft 9 kts 66°
2026-04-15 11:10 50.04582 8.56158 363 ft 11 kts 70°
2026-04-15 11:10 50.04615 8.56300 363 ft 15 kts 70°
2026-04-15 11:10 50.04653 8.56456 360 ft 16 kts 69°
2026-04-15 11:11 50.04709 8.56563 360 ft 11 kts 45°
2026-04-15 11:11 50.04757 8.56627 357 ft 8 kts 355°
2026-04-15 11:11 50.04795 8.56593 361 ft 0 kts 337°
2026-04-15 11:11 50.04802 8.56588 359 ft 5 kts 336°
2026-04-15 11:12 50.04808 8.56585 358 ft 0 kts 339°